Find SURCAL 5

NORAD ID: 1577 Int'l Des: 1965-065 Owner: NRL Country: US operational
LEOCIRCULARRETROGRADE

Current View

Loading 3D Globe...

About SURCAL 5

Description loading...

Upcoming Passes

Passes for default location (London). Set your location on the main map for personalized predictions.

Altitude History

Loading altitude history...

Two-Line Element Set

1 01577U 65065J 26149.62821183 .00000097 00000-0 16801-3 0 9990
2 01577 90.0310 212.0391 0071129 154.6250 10.5890 13.36253679960177
Epoch: May 29, 2026 • Age: 13 hours

Current Status

Altitude 1190.1 km
Velocity 7.23 km/s
Sub-Earth Point -37.66°S, 102.27°W
Type other

Most Searched